| time (UTC) | temp F | wind direction | speed MPH | gust MPH | rain 1hr in | rain 24hr in | rain mn in | humidity % | barometer mb |
| 20260507150240 | 55 | 355 | 9.0 | 13.0 | 0.00 | 0.00 | 0.03 | 25 | 1013.0 |
| 20260507145741 | 55 | 358 | 9.0 | 14.0 | 0.00 | 0.00 | 0.03 | 25 | 1013.0 |
| 20260507145239 | 55 | 356 | 8.0 | 13.0 | 0.00 | 0.00 | 0.03 | 25 | 1013.0 |
| 20260507144739 | 55 | 17 | 5.0 | 9.0 | 0.00 | 0.00 | 0.03 | 26 | 1013.0 |
| 20260507144239 | 55 | 2 | 4.0 | 8.0 | 0.00 | 0.00 | 0.03 | 26 | 1013.0 |
| 20260507143740 | 55 | 356 | 7.0 | 14.0 | 0.00 | 0.00 | 0.03 | 24 | 1013.0 |
| 20260507143240 | 55 | 3 | 6.0 | 9.0 | 0.00 | 0.00 | 0.03 | 25 | 1013.0 |
| 20260507142741 | 56 | 35 | 6.0 | 17.0 | 0.00 | 0.00 | 0.03 | 23 | 1013.0 |
| 20260507142239 | 56 | 1 | 9.0 | 15.0 | 0.00 | 0.00 | 0.03 | 22 | 1013.0 |
| 20260507141739 | 56 | 15 | 6.0 | 9.0 | 0.00 | 0.00 | 0.03 | 23 | 1012.0 |
| 20260507141240 | 56 | 21 | 6.0 | 10.0 | 0.00 | 0.00 | 0.03 | 21 | 1012.0 |
| 20260507140741 | 56 | 26 | 5.0 | 10.0 | 0.00 | 0.00 | 0.03 | 22 | 1012.0 |
| 20260507140239 | 56 | 2 | 5.0 | 9.0 | 0.00 | 0.00 | 0.03 | 22 | 1012.0 |
| 20260507135740 | 56 | 21 | 7.0 | 14.0 | 0.00 | 0.00 | 0.03 | 23 | 1012.0 |
| 20260507135239 | 56 | 358 | 6.0 | 13.0 | 0.00 | 0.00 | 0.03 | 22 | 1012.0 |
| 20260507134739 | 56 | 4 | 8.0 | 15.0 | 0.00 | 0.00 | 0.03 | 20 | 1012.0 |
| 20260507134239 | 56 | 12 | 7.0 | 15.0 | 0.00 | 0.00 | 0.03 | 21 | 1012.0 |
| 20260507133740 | 55 | 5 | 6.0 | 11.0 | 0.00 | 0.00 | 0.03 | 21 | 1012.0 |
| 20260507133239 | 55 | 8 | 8.0 | 12.0 | 0.00 | 0.00 | 0.03 | 20 | 1012.0 |
| 20260507132740 | 55 | 2 | 3.0 | 10.0 | 0.00 | 0.00 | 0.03 | 22 | 1012.0 |
| 20260507132240 | 55 | 19 | 5.0 | 9.0 | 0.00 | 0.00 | 0.03 | 21 | 1012.0 |
| 20260507131740 | 54 | 23 | 6.0 | 12.0 | 0.00 | 0.00 | 0.03 | 20 | 1012.0 |
| 20260507131240 | 54 | 18 | 4.0 | 11.0 | 0.00 | 0.00 | 0.03 | 22 | 1011.0 |
| 20260507130258 | 54 | 8 | 6.0 | 12.0 | 0.00 | 0.00 | 0.03 | 21 | 1011.0 |
| 20260507125740 | 54 | 23 | 6.0 | 12.0 | 0.00 | 0.00 | 0.03 | 21 | 1011.0 |
| 20260507125241 | 55 | 1 | 8.0 | 14.0 | 0.00 | 0.00 | 0.03 | 21 | 1011.0 |
| 20260507124740 | 55 | 15 | 7.0 | 10.0 | 0.00 | 0.00 | 0.03 | 21 | 1012.0 |
| 20260507124239 | 54 | 12 | 5.0 | 10.0 | 0.00 | 0.00 | 0.03 | 23 | 1011.0 |
| 20260507123740 | 55 | 350 | 6.0 | 9.0 | 0.00 | 0.00 | 0.03 | 24 | 1011.0 |
| 20260507123239 | 55 | 5 | 4.0 | 7.0 | 0.00 | 0.00 | 0.03 | 26 | 1011.0 |
| 20260507122739 | 55 | 6 | 5.0 | 12.0 | 0.00 | 0.00 | 0.03 | 27 | 1011.0 |
| 20260507122239 | 56 | 355 | 7.0 | 10.0 | 0.00 | 0.00 | 0.03 | 24 | 1010.0 |
| 20260507121745 | 57 | 356 | 5.0 | 11.0 | 0.00 | 0.00 | 0.03 | 20 | 1011.0 |
| 20260507121240 | 57 | 5 | 7.0 | 12.0 | 0.00 | 0.00 | 0.03 | 17 | 1011.0 |
| 20260507120739 | 57 | 358 | 6.0 | 11.0 | 0.00 | 0.00 | 0.03 | 17 | 1011.0 |
| 20260507120240 | 57 | 0 | 8.0 | 12.0 | 0.00 | 0.00 | 0.03 | 16 | 1011.0 |
| 20260507115739 | 57 | 355 | 6.0 | 10.0 | 0.00 | 0.00 | 0.03 | 17 | 1011.0 |
| 20260507115241 | 58 | 350 | 7.0 | 13.0 | 0.00 | 0.00 | 0.03 | 17 | 1011.0 |
| 20260507114740 | 58 | 346 | 6.0 | 13.0 | 0.00 | 0.00 | 0.03 | 17 | 1011.0 |
| 20260507114240 | 58 | 344 | 8.0 | 14.0 | 0.00 | 0.00 | 0.03 | 16 | 1011.0 |
| 20260507113740 | 58 | 331 | 10.0 | 16.0 | 0.00 | 0.00 | 0.03 | 16 | 1011.0 |
| 20260507113239 | 57 | 0 | 7.0 | 12.0 | 0.00 | 0.00 | 0.03 | 17 | 1011.0 |
| 20260507112741 | 57 | 3 | 6.0 | 8.0 | 0.00 | 0.00 | 0.03 | 19 | 1010.0 |
| 20260507112239 | 58 | 350 | 6.0 | 10.0 | 0.00 | 0.00 | 0.03 | 18 | 1010.0 |
| 20260507111739 | 58 | 6 | 5.0 | 9.0 | 0.00 | 0.00 | 0.03 | 20 | 1010.0 |
| 20260507111241 | 58 | 355 | 4.0 | 6.0 | 0.00 | 0.00 | 0.03 | 23 | 1009.0 |
| 20260507110739 | 58 | 354 | 8.0 | 12.0 | 0.00 | 0.00 | 0.03 | 20 | 1009.0 |
| 20260507110239 | 57 | 353 | 7.0 | 12.0 | 0.00 | 0.00 | 0.03 | 21 | 1009.0 |
| 20260507105739 | 57 | 338 | 5.0 | 9.0 | 0.00 | 0.00 | 0.03 | 21 | 1009.0 |
| 20260507105239 | 57 | 9 | 6.0 | 11.0 | 0.00 | 0.00 | 0.03 | 20 | 1009.0 |
| 20260507104740 | 57 | 5 | 10.0 | 17.0 | 0.00 | 0.00 | 0.03 | 21 | 1009.0 |
| 20260507104239 | 57 | 7 | 7.0 | 11.0 | 0.00 | 0.00 | 0.03 | 23 | 1008.0 |
| 20260507103739 | 57 | 2 | 9.0 | 14.0 | 0.00 | 0.00 | 0.03 | 24 | 1008.0 |
| 20260507103240 | 57 | 6 | 9.0 | 13.0 | 0.00 | 0.00 | 0.03 | 25 | 1008.0 |
| 20260507102739 | 57 | 3 | 8.0 | 12.0 | 0.00 | 0.00 | 0.03 | 25 | 1009.0 |
| 20260507102239 | 56 | 339 | 8.0 | 12.0 | 0.00 | 0.00 | 0.03 | 28 | 1008.0 |
| 20260507101741 | 56 | 325 | 2.0 | 7.0 | 0.00 | 0.00 | 0.03 | 30 | 1008.0 |
| 20260507101239 | 56 | 351 | 9.0 | 14.0 | 0.00 | 0.00 | 0.03 | 29 | 1008.0 |
| 20260507100740 | 55 | 350 | 9.0 | 14.0 | 0.00 | 0.00 | 0.03 | 32 | 1007.0 |
| 20260507100240 | 54 | 358 | 6.0 | 11.0 | 0.00 | 0.00 | 0.03 | 40 | 1008.0 |
| 20260507095740 | 54 | 357 | 2.0 | 4.0 | 0.00 | 0.00 | 0.03 | 53 | 1008.0 |
| 20260507095239 | 53 | 329 | 4.0 | 9.0 | 0.00 | 0.00 | 0.03 | 53 | 1009.0 |
| 20260507094739 | 53 | 296 | 2.0 | 4.0 | 0.00 | 0.00 | 0.03 | 63 | 1009.0 |
| 20260507094239 | 53 | 336 | 3.0 | 6.0 | 0.00 | 0.00 | 0.03 | 64 | 1009.0 |
| 20260507093745 | 53 | 277 | 4.0 | 5.0 | 0.00 | 0.00 | 0.03 | 63 | 1009.0 |
| 20260507093239 | 53 | 316 | 3.0 | 4.0 | 0.00 | 0.00 | 0.03 | 64 | 1009.0 |
| 20260507092740 | 52 | 10 | 4.0 | 10.0 | 0.00 | 0.00 | 0.03 | 64 | 1009.0 |
| 20260507092240 | 52 | 59 | 3.0 | 4.0 | 0.01 | 0.00 | 0.03 | 71 | 1009.0 |
| 20260507091740 | 52 | 20 | 1.0 | 1.0 | 0.01 | 0.00 | 0.03 | 75 | 1009.0 |
| 20260507091239 | 52 | 359 | 3.0 | 4.0 | 0.00 | 0.00 | 0.03 | 73 | 1009.0 |
| 20260507090739 | 53 | 37 | 2.0 | 3.0 | 0.00 | 0.00 | 0.03 | 72 | 1009.0 |
| 20260507090240 | 52 | 255 | 2.0 | 3.0 | 0.00 | 0.00 | 0.03 | 69 | 1009.0 |
| 20260507085739 | 52 | 273 | 3.0 | 4.0 | 0.00 | 0.00 | 0.03 | 71 | 1009.0 |
| 20260507085239 | 52 | 260 | 2.0 | 3.0 | 0.00 | 0.00 | 0.03 | 71 | 1009.0 |
| 20260507084739 | 52 | 299 | 5.0 | 8.0 | 0.01 | 0.00 | 0.03 | 70 | 1010.0 |
| 20260507084244 | 53 | 334 | 2.0 | 3.0 | 0.00 | 0.00 | 0.03 | 70 | 1010.0 |
| 20260507083739 | 54 | 346 | 4.0 | 8.0 | 0.16 | 0.00 | 0.03 | 62 | 1010.0 |
| 20260507083243 | 53 | 336 | 2.0 | 7.0 | 0.00 | 0.00 | 0.02 | 63 | 1010.0 |
| 20260507082739 | 54 | 3 | 1.0 | 2.0 | 0.00 | 0.00 | 0.02 | 70 | 1010.0 |
| 20260507082240 | 55 | 268 | 0.0 | 0.0 | 0.00 | 0.00 | 0.02 | 69 | 1009.0 |
| 20260507081740 | 55 | 319 | 0.0 | 1.0 | 0.00 | 0.00 | 0.02 | 62 | 1009.0 |
| 20260507081239 | 55 | 259 | 1.0 | 2.0 | 0.00 | 0.00 | 0.02 | 57 | 1009.0 |
| 20260507080740 | 55 | 125 | 2.0 | 4.0 | 0.00 | 0.00 | 0.02 | 56 | 1009.0 |
| 20260507080240 | 55 | 184 | 2.0 | 4.0 | 0.00 | 0.00 | 0.02 | 52 | 1008.0 |
| 20260507075739 | 55 | 68 | 1.0 | 5.0 | 0.00 | 0.00 | 0.02 | 57 | 1008.0 |
| 20260507075239 | 55 | 269 | 4.0 | 6.0 | 0.00 | 0.00 | 0.02 | 50 | 1008.0 |
| 20260507074739 | 54 | 279 | 4.0 | 6.0 | 0.00 | 0.00 | 0.02 | 53 | 1008.0 |
| 20260507074239 | 53 | 263 | 1.0 | 5.0 | 0.00 | 0.00 | 0.02 | 63 | 1008.0 |
| 20260507073739 | 52 | 137 | 1.0 | 3.0 | 0.00 | 0.00 | 0.02 | 69 | 1008.0 |
| 20260507073239 | 52 | 155 | 1.0 | 2.0 | 0.00 | 0.00 | 0.02 | 68 | 1008.0 |
| 20260507072739 | 52 | 287 | 3.0 | 7.0 | 0.00 | 0.00 | 0.02 | 74 | 1008.0 |
| 20260507072240 | 52 | 302 | 3.0 | 5.0 | 0.00 | 0.00 | 0.02 | 70 | 1008.0 |
| 20260507071740 | 52 | 302 | 2.0 | 4.0 | 0.00 | 0.00 | 0.02 | 71 | 1008.0 |
| 20260507071239 | 52 | 349 | 0.0 | 2.0 | 0.00 | 0.00 | 0.02 | 82 | 1008.0 |
| 20260507070739 | 53 | 281 | 2.0 | 3.0 | 0.00 | 0.00 | 0.02 | 83 | 1008.0 |
| 20260507070239 | 54 | 36 | 1.0 | 2.0 | 0.00 | 0.00 | 0.02 | 81 | 1008.0 |
| 20260507065739 | 54 | 201 | 0.0 | 2.0 | 0.00 | 0.00 | 0.02 | 80 | 1008.0 |
| 20260507065239 | 54 | 280 | 0.0 | 1.0 | 0.00 | 0.00 | 0.02 | 84 | 1008.0 |
| 20260507064740 | 54 | 230 | 1.0 | 2.0 | 0.00 | 0.00 | 0.02 | 90 | 1008.0 |
| 20260507064240 | 54 | 27 | 0.0 | 1.0 | 0.00 | 0.00 | 0.02 | 89 | 1008.0 |
| 20260507063739 | 54 | 198 | 1.0 | 1.0 | 0.00 | 0.00 | 0.02 | 87 | 1008.0 |
| 20260507063240 | 54 | 203 | 1.0 | 2.0 | 0.00 | 0.00 | 0.02 | 88 | 1008.0 |
| 20260507062739 | 54 | 200 | 2.0 | 3.0 | 0.00 | 0.00 | 0.02 | 89 | 1008.0 |
| 20260507062239 | 54 | 18 | 0.0 | 1.0 | 0.00 | 0.00 | 0.02 | 88 | 1008.0 |
| 20260507061739 | 54 | 277 | 0.0 | 1.0 | 0.00 | 0.00 | 0.02 | 87 | 1008.0 |
| 20260507061240 | 54 | 85 | 0.0 | 1.0 | 0.00 | 0.00 | 0.02 | 87 | 1008.0 |
| 20260507060739 | 54 | 337 | 0.0 | 1.0 | 0.00 | 0.00 | 0.02 | 91 | 1008.0 |
| 20260507060239 | 54 | 32 | 0.0 | 2.0 | 0.00 | 0.00 | 0.02 | 91 | 1008.0 |
| 20260507055739 | 55 | 240 | 2.0 | 3.0 | 0.00 | 0.00 | 0.02 | 92 | 1008.0 |
| 20260507055239 | 55 | 343 | 0.0 | 1.0 | 0.00 | 0.00 | 0.02 | 92 | 1008.0 |
| 20260507054739 | 55 | 267 | 0.0 | 1.0 | 0.00 | 0.00 | 0.02 | 93 | 1008.0 |
| 20260507054239 | 55 | 67 | 1.0 | 2.0 | 0.00 | 0.00 | 0.02 | 93 | 1008.0 |
| 20260507053739 | 55 | 123 | 0.0 | 2.0 | 0.00 | 0.00 | 0.02 | 93 | 1008.0 |
| 20260507053240 | 55 | 232 | 2.0 | 3.0 | 0.00 | 0.00 | 0.02 | 93 | 1008.0 |
| 20260507052739 | 55 | 66 | 0.0 | 2.0 | 0.00 | 0.00 | 0.02 | 93 | 1008.0 |
| 20260507052240 | 55 | 204 | 1.0 | 1.0 | 0.00 | 0.00 | 0.02 | 93 | 1008.0 |
| 20260507051739 | 55 | 284 | 1.0 | 2.0 | 0.00 | 0.00 | 0.02 | 93 | 1008.0 |
| 20260507051239 | 55 | 338 | 1.0 | 2.0 | 0.00 | 0.00 | 0.02 | 93 | 1008.0 |
| 20260507050739 | 55 | 318 | 1.0 | 2.0 | 0.00 | 0.00 | 0.02 | 93 | 1008.0 |
| 20260507050239 | 55 | 33 | 0.0 | 1.0 | 0.00 | 0.00 | 0.02 | 92 | 1008.0 |
| 20260507045740 | 56 | 338 | 1.0 | 2.0 | 0.00 | 0.00 | 0.02 | 92 | 1008.0 |
| 20260507045239 | 56 | 278 | 2.0 | 3.0 | 0.00 | 0.00 | 0.02 | 92 | 1008.0 |
| 20260507044739 | 56 | 0 | 0.0 | 0.0 | 0.00 | 0.00 | 0.02 | 92 | 1008.0 |
| 20260507044240 | 56 | 0 | 0.0 | 0.0 | 0.00 | 0.00 | 0.02 | 91 | 1008.0 |
| 20260507043740 | 56 | 289 | 0.0 | 1.0 | 0.00 | 0.00 | 0.02 | 91 | 1008.0 |
| 20260507043243 | 57 | 287 | 1.0 | 2.0 | 0.00 | 0.00 | 0.02 | 91 | 1008.0 |
| 20260507042739 | 57 | 70 | 0.0 | 0.0 | 0.00 | 0.00 | 0.02 | 91 | 1008.0 |
| 20260507042239 | 57 | 208 | 2.0 | 3.0 | 0.00 | 0.00 | 0.02 | 91 | 1008.0 |
| 20260507041739 | 57 | 269 | 0.0 | 2.0 | 0.00 | 0.00 | 0.02 | 91 | 1008.0 |
| 20260507041239 | 57 | 274 | 1.0 | 2.0 | 0.00 | 0.00 | 0.02 | 90 | 1008.0 |
| 20260507040739 | 57 | 294 | 2.0 | 3.0 | 0.00 | 0.00 | 0.02 | 89 | 1008.0 |
| 20260507040241 | 58 | 250 | 0.0 | 1.0 | 0.00 | 0.00 | 0.02 | 89 | 1008.0 |
| 20260507035739 | 58 | 258 | 1.0 | 2.0 | 0.00 | 0.00 | 0.02 | 89 | 1008.0 |
| 20260507035240 | 58 | 308 | 0.0 | 1.0 | 0.00 | 0.00 | 0.02 | 89 | 1008.0 |
| 20260507034739 | 58 | 333 | 0.0 | 1.0 | 0.00 | 0.00 | 0.02 | 87 | 1008.0 |
| 20260507033922 | 58 | 0 | 0.0 | 0.0 | 0.00 | 0.00 | 0.02 | 84 | 1008.0 |
| 20260507033240 | 58 | 131 | 0.0 | 1.0 | 0.00 | 0.00 | 0.02 | 87 | 1008.0 |
| 20260507032739 | 58 | 123 | 1.0 | 3.0 | 0.00 | 0.00 | 0.02 | 89 | 1008.0 |
| 20260507032240 | 59 | 355 | 0.0 | 1.0 | 0.00 | 0.00 | 0.02 | 87 | 1008.0 |
| 20260507031743 | 59 | 59 | 0.0 | 1.0 | 0.00 | 0.00 | 0.02 | 84 | 1008.0 |
| 20260507031239 | 60 | 183 | 2.0 | 3.0 | 0.00 | 0.00 | 0.02 | 81 | 1008.0 |
| 20260507030739 | 61 | 347 | 2.0 | 4.0 | 0.03 | 0.00 | 0.02 | 79 | 1008.0 |
| 20260507030240 | 63 | 304 | 5.0 | 8.0 | 0.45 | 0.00 | 0.01 | 76 | 1008.0 |
| 20260507025740 | 64 | 164 | 2.0 | 3.0 | 1.34 | 0.00 | 0.03 | 68 | 1008.0 |
| 20260507025239 | 64 | 0 | 3.0 | 6.0 | 0.00 | 0.00 | 0.00 | 70 | 1009.0 |
| 20260507024740 | 64 | 6 | 3.0 | 8.0 | 0.00 | 0.00 | 0.00 | 87 | 1008.0 |
| 20260507024239 | 65 | 351 | 1.0 | 2.0 | 0.00 | 0.00 | 0.00 | 85 | 1008.0 |
| 20260507023740 | 65 | 39 | 0.0 | 2.0 | 0.00 | 0.00 | 0.00 | 85 | 1007.0 |
| 20260507022750 | 64 | 215 | 0.0 | 1.0 | 0.00 | 0.00 | 0.00 | 87 | 1007.0 |
| 20260507022239 | 64 | 328 | 1.0 | 1.0 | 0.00 | 0.00 | 0.00 | 88 | 1007.0 |
| 20260507021740 | 64 | 333 | 1.0 | 2.0 | 0.00 | 0.00 | 0.00 | 87 | 1007.0 |
| 20260507021240 | 65 | 330 | 1.0 | 2.0 | 0.00 | 0.00 | 0.00 | 86 | 1007.0 |
| 20260507020739 | 65 | 326 | 0.0 | 1.0 | 0.00 | 0.00 | 0.00 | 86 | 1007.0 |
| 20260507020239 | 65 | 319 | 0.0 | 2.0 | 0.00 | 0.00 | 0.00 | 87 | 1008.0 |
| 20260507015741 | 65 | 342 | 1.0 | 2.0 | 0.00 | 0.00 | 0.00 | 86 | 1008.0 |
| 20260507015240 | 65 | 317 | 1.0 | 1.0 | 0.00 | 0.00 | 0.00 | 86 | 1008.0 |
| 20260507014740 | 65 | 285 | 0.0 | 2.0 | 0.00 | 0.00 | 0.00 | 86 | 1008.0 |
| 20260507014240 | 64 | 269 | 0.0 | 1.0 | 0.00 | 0.00 | 0.00 | 86 | 1008.0 |
| 20260507013739 | 64 | 326 | 0.0 | 1.0 | 0.00 | 0.00 | 0.00 | 86 | 1008.0 |
| 20260507013240 | 64 | 329 | 0.0 | 1.0 | 0.00 | 0.00 | 0.00 | 86 | 1008.0 |
| 20260507012740 | 64 | 57 | 0.0 | 1.0 | 0.00 | 0.00 | 0.00 | 86 | 1008.0 |
| 20260507012240 | 64 | 194 | 1.0 | 2.0 | 0.00 | 0.00 | 0.00 | 86 | 1008.0 |
| 20260507011739 | 64 | 165 | 0.0 | 1.0 | 0.00 | 0.00 | 0.00 | 86 | 1008.0 |
| 20260507011240 | 64 | 275 | 0.0 | 1.0 | 0.00 | 0.00 | 0.00 | 86 | 1008.0 |
| 20260507010739 | 64 | 284 | 0.0 | 1.0 | 0.00 | 0.00 | 0.00 | 86 | 1008.0 |
| 20260507010240 | 64 | 300 | 0.0 | 1.0 | 0.00 | 0.00 | 0.00 | 87 | 1008.0 |
| 20260507005740 | 64 | 301 | 2.0 | 2.0 | 0.00 | 0.00 | 0.00 | 86 | 1008.0 |
| 20260507005240 | 64 | 332 | 1.0 | 1.0 | 0.00 | 0.00 | 0.00 | 86 | 1008.0 |
| 20260507004739 | 64 | 331 | 1.0 | 2.0 | 0.00 | 0.00 | 0.00 | 86 | 1008.0 |
| 20260507004240 | 64 | 331 | 1.0 | 2.0 | 0.00 | 0.00 | 0.00 | 85 | 1008.0 |
| 20260507003739 | 64 | 321 | 0.0 | 1.0 | 0.00 | 0.00 | 0.00 | 85 | 1008.0 |
| 20260507003239 | 64 | 305 | 1.0 | 2.0 | 0.00 | 0.00 | 0.00 | 85 | 1008.0 |
| 20260507002739 | 64 | 350 | 1.0 | 2.0 | 0.00 | 0.00 | 0.00 | 85 | 1008.0 |
| 20260507002240 | 64 | 296 | 1.0 | 2.0 | 0.00 | 0.00 | 0.00 | 85 | 1008.0 |
| 20260507001739 | 64 | 347 | 0.0 | 0.0 | 0.00 | 0.00 | 0.00 | 85 | 1008.0 |
| 20260507001240 | 64 | 125 | 0.0 | 1.0 | 0.00 | 0.00 | 0.00 | 85 | 1008.0 |
| 20260507000739 | 64 | 292 | 2.0 | 2.0 | 0.00 | 0.00 | 0.00 | 86 | 1008.0 |
| 20260507000240 | 64 | 337 | 0.0 | 1.0 | 0.00 | 0.00 | 0.00 | 85 | 1008.0 |
| 20260506235739 | 64 | 352 | 1.0 | 1.0 | 0.00 | 0.00 | 0.00 | 85 | 1008.0 |
| 20260506235239 | 64 | 317 | 0.0 | 1.0 | 0.00 | 0.00 | 0.00 | 85 | 1008.0 |
| 20260506234739 | 64 | 329 | 0.0 | 1.0 | 0.00 | 0.00 | 0.00 | 85 | 1008.0 |
| 20260506234239 | 64 | 322 | 1.0 | 1.0 | 0.00 | 0.00 | 0.00 | 85 | 1008.0 |
| 20260506233740 | 64 | 288 | 1.0 | 2.0 | 0.00 | 0.00 | 0.00 | 84 | 1008.0 |
| 20260506233239 | 64 | 323 | 0.0 | 1.0 | 0.00 | 0.00 | 0.00 | 84 | 1008.0 |
| 20260506232739 | 64 | 328 | 0.0 | 1.0 | 0.00 | 0.00 | 0.00 | 84 | 1008.0 |
| 20260506232240 | 64 | 260 | 1.0 | 2.0 | 0.00 | 0.00 | 0.00 | 84 | 1007.0 |
| 20260506231739 | 64 | 208 | 0.0 | 1.0 | 0.00 | 0.00 | 0.00 | 84 | 1007.0 |
| 20260506231239 | 65 | 336 | 0.0 | 1.0 | 0.00 | 0.00 | 0.00 | 84 | 1007.0 |
| 20260506230739 | 65 | 339 | 1.0 | 3.0 | 0.00 | 0.00 | 0.00 | 84 | 1007.0 |
| 20260506230243 | 65 | 345 | 0.0 | 1.0 | 0.00 | 0.00 | 0.00 | 82 | 1007.0 |
| 20260506225739 | 66 | 4 | 0.0 | 2.0 | 0.00 | 0.00 | 0.00 | 80 | 1007.0 |
| 20260506225239 | 66 | 83 | 0.0 | 1.0 | 0.00 | 0.00 | 0.00 | 80 | 1007.0 |
| 20260506224739 | 67 | 162 | 1.0 | 2.0 | 0.00 | 0.00 | 0.00 | 80 | 1007.0 |
| 20260506224240 | 68 | 189 | 1.0 | 2.0 | 0.00 | 0.00 | 0.00 | 77 | 1007.0 |
| 20260506223740 | 68 | 296 | 0.0 | 2.0 | 0.00 | 0.00 | 0.00 | 77 | 1007.0 |
| 20260506223240 | 68 | 315 | 1.0 | 2.0 | 0.00 | 0.00 | 0.00 | 76 | 1007.0 |
| 20260506222748 | 68 | 305 | 2.0 | 2.0 | 0.00 | 0.00 | 0.00 | 76 | 1007.0 |
| 20260506222240 | 69 | 285 | 2.0 | 3.0 | 0.00 | 0.00 | 0.00 | 76 | 1007.0 |
| 20260506221739 | 69 | 311 | 1.0 | 2.0 | 0.00 | 0.00 | 0.00 | 75 | 1007.0 |
| 20260506221239 | 69 | 297 | 1.0 | 2.0 | 0.00 | 0.00 | 0.00 | 76 | 1007.0 |
| 20260506220744 | 69 | 24 | 0.0 | 1.0 | 0.00 | 0.00 | 0.00 | 76 | 1007.0 |
| 20260506220239 | 69 | 329 | 1.0 | 2.0 | 0.00 | 0.00 | 0.00 | 74 | 1006.0 |
| 20260506215739 | 70 | 335 | 1.0 | 2.0 | 0.00 | 0.00 | 0.00 | 73 | 1006.0 |
| 20260506215239 | 70 | 305 | 2.0 | 2.0 | 0.00 | 0.00 | 0.00 | 72 | 1006.0 |
| 20260506214741 | 71 | 350 | 0.0 | 1.0 | 0.00 | 0.00 | 0.00 | 71 | 1006.0 |
| 20260506214240 | 71 | 333 | 2.0 | 3.0 | 0.00 | 0.00 | 0.00 | 70 | 1006.0 |
| 20260506213740 | 72 | 324 | 2.0 | 2.0 | 0.00 | 0.00 | 0.00 | 69 | 1006.0 |
| 20260506213239 | 73 | 354 | 2.0 | 3.0 | 0.00 | 0.00 | 0.00 | 67 | 1005.0 |
| 20260506212739 | 74 | 341 | 2.0 | 4.0 | 0.00 | 0.00 | 0.00 | 66 | 1005.0 |
| 20260506212239 | 74 | 339 | 2.0 | 4.0 | 0.00 | 0.00 | 0.00 | 64 | 1005.0 |
| 20260506211739 | 75 | 9 | 1.0 | 3.0 | 0.00 | 0.00 | 0.00 | 57 | 1005.0 |
| 20260506211240 | 76 | 354 | 0.0 | 1.0 | 0.00 | 0.00 | 0.00 | 52 | 1005.0 |
| 20260506210739 | 77 | 353 | 0.0 | 1.0 | 0.00 | 0.00 | 0.00 | 51 | 1005.0 |
| 20260506210239 | 78 | 20 | 0.0 | 1.0 | 0.00 | 0.00 | 0.00 | 49 | 1005.0 |
| 20260506205739 | 78 | 286 | 0.0 | 1.0 | 0.00 | 0.00 | 0.00 | 47 | 1005.0 |
| 20260506205239 | 79 | 3 | 0.0 | 1.0 | 0.00 | 0.00 | 0.00 | 46 | 1005.0 |
| 20260506204740 | 80 | 126 | 2.0 | 4.0 | 0.00 | 0.00 | 0.00 | 43 | 1005.0 |
| 20260506204239 | 80 | 143 | 2.0 | 3.0 | 0.00 | 0.00 | 0.00 | 42 | 1005.0 |
| 20260506203740 | 81 | 139 | 1.0 | 3.0 | 0.00 | 0.00 | 0.00 | 41 | 1005.0 |
| 20260506203239 | 82 | 135 | 2.0 | 4.0 | 0.00 | 0.00 | 0.00 | 38 | 1005.0 |
| 20260506202739 | 82 | 85 | 1.0 | 2.0 | 0.00 | 0.00 | 0.00 | 38 | 1005.0 |
| 20260506202239 | 82 | 142 | 2.0 | 3.0 | 0.00 | 0.00 | 0.00 | 38 | 1005.0 |
| 20260506201740 | 83 | 132 | 1.0 | 2.0 | 0.00 | 0.00 | 0.00 | 37 | 1005.0 |
| 20260506201239 | 83 | 51 | 1.0 | 2.0 | 0.00 | 0.00 | 0.00 | 36 | 1005.0 |
| 20260506200739 | 83 | 234 | 1.0 | 2.0 | 0.00 | 0.00 | 0.00 | 36 | 1005.0 |
| 20260506200239 | 83 | 75 | 2.0 | 3.0 | 0.00 | 0.00 | 0.00 | 36 | 1005.0 |
| 20260506195739 | 84 | 137 | 1.0 | 2.0 | 0.00 | 0.00 | 0.00 | 36 | 1005.0 |
| 20260506195239 | 84 | 24 | 1.0 | 3.0 | 0.00 | 0.00 | 0.00 | 34 | 1005.0 |
| 20260506194739 | 84 | 312 | 1.0 | 2.0 | 0.00 | 0.00 | 0.00 | 35 | 1005.0 |
| 20260506194240 | 84 | 349 | 1.0 | 2.0 | 0.00 | 0.00 | 0.00 | 34 | 1005.0 |
| 20260506193740 | 84 | 50 | 1.0 | 2.0 | 0.00 | 0.00 | 0.00 | 34 | 1005.0 |
| 20260506193239 | 84 | 160 | 2.0 | 4.0 | 0.00 | 0.00 | 0.00 | 34 | 1005.0 |
| 20260506192739 | 85 | 142 | 2.0 | 5.0 | 0.00 | 0.00 | 0.00 | 32 | 1005.0 |
| 20260506192239 | 84 | 255 | 1.0 | 2.0 | 0.00 | 0.00 | 0.00 | 37 | 1005.0 |
| 20260506191739 | 83 | 45 | 1.0 | 3.0 | 0.00 | 0.00 | 0.00 | 35 | 1005.0 |
| 20260506191241 | 83 | 280 | 1.0 | 2.0 | 0.00 | 0.00 | 0.00 | 36 | 1005.0 |
| 20260506190739 | 82 | 151 | 2.0 | 3.0 | 0.00 | 0.00 | 0.00 | 39 | 1005.0 |
| 20260506190240 | 83 | 141 | 2.0 | 6.0 | 0.00 | 0.00 | 0.00 | 37 | 1005.0 |
| 20260506185739 | 82 | 217 | 0.0 | 2.0 | 0.00 | 0.00 | 0.00 | 41 | 1005.0 |
| 20260506185240 | 82 | 288 | 1.0 | 3.0 | 0.00 | 0.00 | 0.00 | 41 | 1005.0 |
| 20260506184740 | 82 | 124 | 3.0 | 4.0 | 0.00 | 0.00 | 0.00 | 40 | 1005.0 |
| 20260506184240 | 82 | 125 | 3.0 | 6.0 | 0.00 | 0.00 | 0.00 | 39 | 1005.0 |
| 20260506183740 | 82 | 105 | 2.0 | 4.0 | 0.00 | 0.00 | 0.00 | 40 | 1005.0 |
| 20260506183239 | 82 | 227 | 2.0 | 4.0 | 0.00 | 0.00 | 0.00 | 42 | 1006.0 |
| 20260506182740 | 82 | 231 | 1.0 | 2.0 | 0.00 | 0.00 | 0.00 | 41 | 1006.0 |
| 20260506182240 | 82 | 81 | 2.0 | 4.0 | 0.00 | 0.00 | 0.00 | 41 | 1006.0 |
| 20260506181739 | 82 | 249 | 2.0 | 4.0 | 0.00 | 0.00 | 0.00 | 42 | 1006.0 |
| 20260506181239 | 82 | 90 | 1.0 | 2.0 | 0.00 | 0.00 | 0.00 | 42 | 1006.0 |
| 20260506180739 | 82 | 350 | 2.0 | 3.0 | 0.00 | 0.00 | 0.00 | 43 | 1006.0 |
| 20260506180243 | 82 | 153 | 2.0 | 4.0 | 0.00 | 0.00 | 0.00 | 41 | 1006.0 |
| 20260506175740 | 82 | 319 | 1.0 | 2.0 | 0.00 | 0.00 | 0.00 | 42 | 1006.0 |
| 20260506175240 | 82 | 72 | 1.0 | 2.0 | 0.00 | 0.00 | 0.00 | 47 | 1007.0 |
| 20260506174739 | 81 | 303 | 1.0 | 3.0 | 0.00 | 0.00 | 0.00 | 44 | 1007.0 |
| 20260506174240 | 81 | 57 | 2.0 | 4.0 | 0.00 | 0.00 | 0.00 | 42 | 1007.0 |
| 20260506173739 | 81 | 86 | 2.0 | 4.0 | 0.00 | 0.00 | 0.00 | 44 | 1007.0 |
| 20260506173240 | 81 | 135 | 4.0 | 8.0 | 0.00 | 0.00 | 0.00 | 43 | 1007.0 |
| 20260506172739 | 81 | 142 | 2.0 | 5.0 | 0.00 | 0.00 | 0.00 | 44 | 1007.0 |
| 20260506172240 | 81 | 131 | 3.0 | 4.0 | 0.00 | 0.00 | 0.00 | 43 | 1007.0 |
| 20260506171739 | 82 | 91 | 2.0 | 4.0 | 0.00 | 0.00 | 0.00 | 43 | 1007.0 |
| 20260506171240 | 82 | 200 | 1.0 | 2.0 | 0.00 | 0.00 | 0.00 | 45 | 1007.0 |
| 20260506170740 | 81 | 47 | 2.0 | 5.0 | 0.00 | 0.00 | 0.00 | 47 | 1007.0 |
| 20260506170240 | 81 | 122 | 2.0 | 5.0 | 0.00 | 0.00 | 0.00 | 43 | 1007.0 |
| 20260506165739 | 81 | 120 | 1.0 | 2.0 | 0.00 | 0.00 | 0.00 | 44 | 1008.0 |
| 20260506165239 | 81 | 129 | 2.0 | 5.0 | 0.00 | 0.00 | 0.00 | 43 | 1008.0 |
| 20260506164740 | 80 | 315 | 2.0 | 4.0 | 0.00 | 0.00 | 0.00 | 47 | 1008.0 |
| 20260506164240 | 80 | 313 | 1.0 | 2.0 | 0.00 | 0.00 | 0.00 | 48 | 1008.0 |
| 20260506163739 | 80 | 343 | 2.0 | 3.0 | 0.00 | 0.00 | 0.00 | 49 | 1008.0 |
| 20260506163239 | 80 | 333 | 3.0 | 4.0 | 0.00 | 0.00 | 0.00 | 47 | 1008.0 |
| 20260506162739 | 80 | 7 | 1.0 | 3.0 | 0.00 | 0.00 | 0.00 | 48 | 1008.0 |
| 20260506162240 | 80 | 138 | 2.0 | 4.0 | 0.00 | 0.00 | 0.00 | 45 | 1008.0 |
| 20260506161740 | 80 | 340 | 1.0 | 3.0 | 0.00 | 0.00 | 0.00 | 45 | 1008.0 |
| 20260506161240 | 79 | 52 | 1.0 | 3.0 | 0.00 | 0.00 | 0.00 | 47 | 1008.0 |
| 20260506160739 | 79 | 348 | 2.0 | 3.0 | 0.00 | 0.00 | 0.00 | 47 | 1008.0 |
| 20260506160241 | 79 | 151 | 2.0 | 3.0 | 0.00 | 0.00 | 0.00 | 47 | 1008.0 |
| 20260506155742 | 79 | 100 | 1.0 | 3.0 | 0.00 | 0.00 | 0.00 | 48 | 1008.0 |
| 20260506155242 | 78 | 133 | 2.0 | 3.0 | 0.00 | 0.00 | 0.00 | 47 | 1008.0 |
| 20260506154740 | 77 | 308 | 1.0 | 2.0 | 0.00 | 0.00 | 0.00 | 48 | 1008.0 |
| 20260506154239 | 77 | 3 | 2.0 | 3.0 | 0.00 | 0.00 | 0.00 | 51 | 1008.0 |
| 20260506153739 | 76 | 355 | 2.0 | 3.0 | 0.00 | 0.00 | 0.00 | 53 | 1008.0 |
| 20260506153240 | 76 | 305 | 1.0 | 2.0 | 0.00 | 0.00 | 0.00 | 52 | 1008.0 |
| 20260506152740 | 76 | 215 | 2.0 | 3.0 | 0.00 | 0.00 | 0.00 | 51 | 1008.0 |
| 20260506152240 | 75 | 239 | 2.0 | 3.0 | 0.00 | 0.00 | 0.00 | 53 | 1008.0 |
| 20260506151739 | 75 | 114 | 2.0 | 3.0 | 0.00 | 0.00 | 0.00 | 52 | 1008.0 |
| 20260506151240 | 75 | 212 | 1.0 | 2.0 | 0.00 | 0.00 | 0.00 | 54 | 1009.0 |
| 20260506150740 | 75 | 127 | 2.0 | 4.0 | 0.00 | 0.00 | 0.00 | 54 | 1009.0 |